Date String (YYYY-MM-DD hh:mm:ss) UTC,Instrument flags,absolute air pressure of the measurement (hPa),sample flow rate (lpm),inlet stack bypass flow (lpm),air temperature of the measurement (°C),ambient temperature measured by the external sensor (°C),aerosol sample conditioner tube jacket temperature (°C),OPC LED temperature (°C),internal box temperature (°C),relative humidity of the measurement (%),span deviation,mass concentration of particles derived from Lorenz-Mie calculation of OPC scattering (μg/m³),mass concentration of particles derived from Lorenz-Mie calculation of OPC scattering (μg/m³),mass concentration of particles derived from Lorenz-Mie calculation of OPC scattering (μg/m³)
DateTimeUTC,F1_M11,P_M11,Q1_M11,Q2_M11,T1_M11,T2_M11,T3_M11,T4_M11,T5_M11,U1_M11,ZSPAN_M11,X0_M11,X2_M11,X1_M11
2023-12-05 19:00:00,SystemResetWarning,0835.0,5.00,000.00,024.9,024.3,000.0,032.9,026.3,17.2,0000.0,0006.49,0002.42,0001.74
2023-12-05 19:01:00,SystemResetWarning,0835.0,5.00,000.00,024.9,024.3,000.0,032.9,026.4,16.4,0000.0,0006.35,0002.38,0001.73
2023-12-05 19:02:00,SystemResetWarning,0835.0,5.00,000.00,024.9,024.3,000.0,032.9,026.4,16.6,0000.0,0006.32,0002.36,0001.71
2023-12-05 19:03:00,SystemResetWarning,0835.0,5.00,000.00,025.0,024.4,000.0,033.0,026.4,16.1,0000.0,0006.30,0002.34,0001.70
2023-12-05 19:04:00,SystemResetWarning,0834.9,5.00,000.00,025.0,024.4,000.0,033.0,026.5,16.8,0000.0,0006.16,0002.35,0001.71
2023-12-05 19:05:00,SystemResetWarning,0834.9,5.00,000.00,025.0,024.4,000.0,033.0,026.5,17.1,0000.0,0006.40,0002.46,0001.76
2023-12-05 19:06:00,SystemResetWarning,0834.9,5.00,000.00,025.0,024.4,000.0,033.0,026.5,16.7,0000.0,0006.91,0002.58,0001.86
2023-12-05 19:07:00,SystemResetWarning,0834.9,5.00,000.00,025.1,024.5,000.0,033.1,026.5,17.1,0000.0,0007.32,0002.63,0001.93
2023-12-05 19:08:00,SystemResetWarning,0835.0,5.00,000.00,025.1,024.5,000.0,033.1,026.5,17.4,0000.0,0006.23,0002.64,0001.97
2023-12-05 19:09:00,SystemResetWarning,0835.0,5.01,000.00,025.1,024.5,000.0,033.1,026.6,17.6,0000.0,0005.94,0002.61,0001.99
2023-12-05 19:10:00,SystemResetWarning,0835.0,5.00,000.00,025.1,024.5,000.0,033.1,026.6,17.8,0000.0,0005.48,0002.56,0001.99
2023-12-05 19:11:00,SystemResetWarning,0835.0,5.00,000.00,025.2,024.5,000.0,033.2,026.6,17.8,0000.0,0006.24,0002.56,0002.02
2023-12-05 19:12:00,SystemResetWarning,0835.0,5.00,000.00,025.2,024.6,000.0,033.2,026.6,17.8,0000.0,0007.03,0002.64,0002.03
2023-12-05 19:13:00,SystemResetWarning,0835.0,5.00,000.00,025.2,024.6,000.0,033.2,026.7,17.4,0000.0,0007.27,0002.69,0002.07
2023-12-05 19:14:00,SystemResetWarning,0835.0,5.00,000.00,025.2,024.6,000.0,033.2,026.7,18.4,0000.0,0007.31,0002.74,0002.13
2023-12-05 19:15:00,SystemResetWarning,0835.0,5.00,000.00,025.3,024.6,000.0,033.3,026.7,18.4,0000.0,0007.48,0002.82,0002.20
2023-12-05 19:16:00,SystemResetWarning,0835.0,5.00,000.00,025.3,024.7,000.0,033.3,026.7,18.1,0000.0,0007.74,0002.88,0002.26
2023-12-05 19:17:00,SystemResetWarning,0835.0,5.00,000.00,025.3,024.7,000.0,033.3,026.7,18.4,0000.0,0007.63,0002.92,0002.30
2023-12-05 19:18:00,SystemResetWarning,0835.0,5.00,000.00,025.3,024.7,000.0,033.3,026.8,18.3,0000.0,0007.65,0002.98,0002.34
2023-12-05 19:19:00,SystemResetWarning,0835.1,5.00,000.00,025.3,024.7,000.0,033.3,026.8,18.3,0000.0,0008.06,0003.06,0002.41
2023-12-05 19:20:00,SystemResetWarning,0835.0,5.00,000.00,025.4,024.7,000.0,033.4,026.8,18.3,0000.0,0008.40,0003.13,0002.49
2023-12-05 19:21:00,SystemResetWarning,0835.0,5.00,000.00,025.4,024.7,000.0,033.4,026.8,18.3,0000.0,0008.76,0003.20,0002.59
2023-12-05 19:22:00,SystemResetWarning,0835.0,5.00,000.00,025.4,024.7,000.0,033.4,026.8,18.3,0000.0,0008.78,0003.26,0002.68
2023-12-05 19:23:00,SystemResetWarning,0835.0,5.00,000.00,025.4,024.8,000.0,033.5,026.8,18.4,0000.0,0008.56,0003.33,0002.80
2023-12-05 19:24:00,SystemResetWarning,0835.0,5.00,000.00,025.4,024.8,000.0,033.5,026.9,18.2,0000.0,0008.53,0003.41,0002.93
2023-12-05 19:25:00,SystemResetWarning,0835.0,4.98,000.00,025.5,024.8,000.0,033.5,026.9,18.2,0000.0,0009.06,0003.53,0003.05
2023-12-05 19:26:00,SystemResetWarning,0835.0,4.99,000.00,025.5,024.9,000.0,033.5,027.0,18.2,0000.0,0009.15,0003.62,0003.13
2023-12-05 19:27:00,SystemResetWarning,0834.9,5.00,000.00,025.5,024.9,000.0,033.5,027.0,18.3,0000.0,0009.03,0003.72,0003.19
2023-12-05 19:28:00,SystemResetWarning,0835.0,5.01,000.00,025.5,024.9,000.0,033.6,027.0,18.2,0000.0,0009.04,0003.79,0003.26
2023-12-05 19:29:00,SystemResetWarning,0835.0,5.01,000.00,025.6,024.9,000.0,033.6,027.0,18.1,0000.0,0008.99,0003.86,0003.31
2023-12-05 19:30:00,SystemResetWarning,0834.9,5.00,000.00,025.6,024.9,000.0,033.6,027.0,17.8,0000.0,0008.63,0003.92,0003.37
2023-12-05 19:31:00,SystemResetWarning,0834.9,5.00,000.00,025.6,024.9,000.0,033.6,027.0,17.7,0000.0,0008.51,0003.99,0003.42
2023-12-05 19:32:00,SystemResetWarning,0835.4,5.00,000.00,025.6,024.9,000.0,033.6,027.0,17.7,0000.0,0008.47,0004.02,0003.46
2023-12-05 19:33:00,SystemResetWarning,0835.4,4.99,000.00,025.6,025.0,000.0,033.7,027.1,17.5,0000.0,0007.83,0004.10,0003.52
2023-12-05 19:34:00,SystemResetWarning,0835.3,5.00,000.00,025.7,025.0,000.0,033.7,027.1,17.6,0000.0,0008.02,0004.13,0003.55
2023-12-05 19:35:00,SystemResetWarning,0835.2,5.01,000.00,025.7,025.0,000.0,033.7,027.1,17.7,0000.0,0008.74,0004.16,0003.59
2023-12-05 19:36:00,SystemResetWarning,0835.0,5.01,000.00,025.7,025.0,000.0,033.7,027.1,17.7,0000.0,0008.97,0004.15,0003.62
2023-12-05 19:37:00,SystemResetWarning,0834.7,5.00,000.00,025.7,025.0,000.0,033.8,027.2,17.7,0000.0,0009.59,0004.16,0003.63
2023-12-05 19:38:00,SystemResetWarning,0835.0,5.00,000.00,025.7,025.1,000.0,033.8,027.2,17.4,0000.0,0009.52,0004.14,0003.64
2023-12-05 19:39:00,SystemResetWarning,0835.2,5.00,000.00,025.8,025.1,000.0,033.8,027.2,16.7,0000.0,0009.75,0004.18,0003.66
2023-12-05 19:40:00,SystemResetWarning,0835.0,4.99,000.00,025.8,025.1,000.0,033.8,027.2,17.3,0000.0,0009.79,0004.18,0003.66
2023-12-05 19:41:00,SystemResetWarning,0835.2,4.99,000.00,025.8,025.1,000.0,033.9,027.3,17.6,0000.0,0009.75,0004.17,0003.66
2023-12-05 19:42:00,SystemResetWarning,0835.1,5.00,000.00,025.8,025.2,000.0,033.9,027.3,17.4,0000.0,0009.70,0004.20,0003.67
2023-12-05 19:43:00,SystemResetWarning,0834.9,5.00,000.00,025.9,025.2,000.0,033.9,027.3,17.3,0000.0,0009.67,0004.22,0003.68
2023-12-05 19:44:00,SystemResetWarning,0834.8,5.00,000.00,025.9,025.2,000.0,033.9,027.3,17.7,0000.0,0010.68,0004.22,0003.68
2023-12-05 19:45:00,SystemResetWarning,0834.9,5.00,000.00,025.9,025.2,000.0,033.9,027.3,17.8,0000.0,0011.20,0004.28,0003.71
2023-12-05 19:46:00,SystemResetWarning,0834.8,5.00,000.00,025.9,025.2,000.0,034.0,027.3,17.8,0000.0,0010.76,0004.36,0003.75
2023-12-05 19:47:00,SystemResetWarning,0834.7,5.00,000.00,025.9,025.2,000.0,034.0,027.4,17.7,0000.0,0010.30,0004.39,0003.78
2023-12-05 19:48:00,SystemResetWarning,0834.7,5.00,000.00,026.0,025.3,000.0,034.0,027.4,17.5,0000.0,0009.59,0004.40,0003.80
2023-12-05 19:49:00,SystemResetWarning,0834.7,5.00,000.00,026.0,025.3,000.0,034.0,027.4,17.2,0000.0,0009.93,0004.49,0003.86
2023-12-05 19:50:00,SystemResetWarning,0834.8,5.00,000.00,026.0,025.3,000.0,034.0,027.4,17.1,0000.0,0009.84,0004.52,0003.91
2023-12-05 19:51:00,SystemResetWarning,0834.7,5.00,000.00,026.0,025.3,000.0,034.1,027.4,17.0,0000.0,0009.74,0004.54,0003.96
2023-12-05 19:52:00,SystemResetWarning,0834.7,5.00,000.00,026.0,025.3,000.0,034.1,027.5,17.3,0000.0,0010.26,0004.68,0004.08
2023-12-05 19:53:00,SystemResetWarning,0834.7,5.00,000.00,026.1,025.3,000.0,034.1,027.5,17.4,0000.0,0010.70,0004.86,0004.28
2023-12-05 19:54:00,SystemResetWarning,0834.7,5.00,000.00,026.1,025.4,000.0,034.1,027.5,17.5,0000.0,0011.40,0005.18,0004.56
2023-12-05 19:55:00,SystemResetWarning,0834.7,5.00,000.00,026.1,025.4,000.0,034.1,027.5,17.1,0000.0,0011.26,0005.49,0004.86
2023-12-05 19:56:00,SystemResetWarning,0834.8,4.99,000.00,026.1,025.4,000.0,034.2,027.5,17.3,0000.0,0011.33,0005.72,0005.11
2023-12-05 19:57:00,SystemResetWarning,0834.9,5.00,000.00,026.1,025.4,000.0,034.2,027.5,17.3,0003.1,0011.78,0005.95,0005.37
2023-12-05 19:58:00,SystemResetWarning,0834.7,5.01,000.00,026.2,025.4,000.0,034.2,027.6,17.5,0006.1,0012.49,0006.26,0005.63
2023-12-05 19:59:00,SystemResetWarning,0835.0,5.00,000.00,026.2,025.4,000.0,034.2,027.6,17.6,0005.6,0013.55,0006.55,0005.88
